296P/Garradd (2020)

Japanese version
Home page
Updated on October 9, 2020

---------------------------------------------------------------------

* Profile

* Orbital Elements

Epoch 2020 Sept. 28.0 TT = JDT 2459120.5
T 2020 Sept. 17.92382 TT                                Rudenko
q   1.8234260            (2000.0)            P               Q
n   0.15070813     Peri.  350.12570     -0.26328884     +0.86669102
a   3.4971286      Node   263.64075     -0.85348385     -0.41400230
e   0.4785934      Incl.   25.23474     -0.44971581     +0.27829619
P   6.54
From 331 observations 2001 June 30-2020 Aug. 6, mean residual 0".8.

* Magnitudes Graph

        m1 = 12.5 + 5 log d + 15.0 log r

---------------------------------------------------------------------

The orbital elements are published on M.P.E.C. 2020-S188.
The magnitudes graphs are made with Comet for Windows.

---------------------------------------------------------------------

Copyright(C) Seiichi Yoshida (comet@aerith.net). All rights reserved.